sat.trackr.live / text

‹ back to catalog

KUIPER-00619

NORAD 69777 · 2026-151Q

PAYLOAD ACTIVE UNKNOWN

§ Identity

Operator
Country
US
Launch date
2026-07-02
Launch site
AFETR
Launch vehicle
Mass (kg)
RCS (m²)

External: N2YO · Heavens-Above · Gunter

§ Orbital elements

Epoch: 2026-09-20T05:04:42.945024Z

Period
97.52 min
Inclination
51.9015°
Eccentricity
0.0001538
Mean motion
14.76584661 rev/d
Perigee alt
639.0 km
Apogee alt
641.2 km
Semi-major
7,018.3 km
B*
2.3820e-4
RAAN
227.7254°
Arg perigee
150.7587°
Mean anomaly
209.3460°
Rev number
1,216

§ Raw data

KUIPER-006191 69777U 26151Q   26263.21160816  .00001463  00000+0  23820-3 0  99962 69777  51.9015 227.7254 0001538 150.7587 209.3460 14.76584661 12160

JSON: /api/v1/satellites/69777 · /tle

For live sub-satellite position, see the globe view (requires WebGL).

§ Visibility from observer

Set your observer location to see the next 7 days of passes ≥ 10°. The values pass through the URL so the page stays shareable.

No JS? Fill the form by hand. The geolocation button needs JavaScript.